CZ-2D DEB, 44605

Orbit data source: Space-Track

CZ-2D DEB, 44605 is space debris in SSO originally from a launch on Fri, 11 Nov 2016 UTC launched from the Jiuquan Satellite Launch Center, China (JSC). Debris objects in space refer to the collection of defunct objects orbiting the Earth. Examples of debris include non-operational satellites, rocket bodies, and fragments generated from explosions, collisions, or faulty payload assembly.

Loading next visibility...
Identifier
44605, 2016-068E
Orbit
SSO
Country
Flag of CNCN / PRC
Related business
Manufacturer
Unknown
Mission
Spacecraft
Bus & Motor
Unknown
Mass
Unknown
Launch date (UTC)
2016-11-11 (9 years ago)
Launch vehicle
Unknown
Launch site
Jiuquan Satellite Launch Center, China (JSC)
Object type
Payload
Rocket body
Debris
Shape & HBR
Unknown shape, 0.1 m
Radar Cross Section
Small (<0.1 m²)

Expand to show TLE details & history
Last TLE update: 5 days ago

TLE from 5 days ago
0 CZ-2D DEB
1 44605U 16068E   26033.16403033  .00000537  00000-0  38644-3 0  9997
2 44605  98.4323 108.7092 0227834 268.3593  89.1461 13.89104996462404
Epoch: 2026-02-02T03:56Z
TLE epoch observation values (Epoch: 2026-02-02T03:56:12.220Z)
Latitude
-0.00001°
Longitude
-82.70497°
Altitude
935.963 km
Speed
7.383 km/s
True Right ascension
07h 14m 50s
True Declination
0° 00' 00"
Sunlit
Object was in full shadow at epoch
Visualization orbit readout
Latitude
Unknown
Longitude
Unknown
Altitude
Unknown
Speed
Unknown
Apparent Right ascension
Unknown
Apparent Declination
Unknown
Sunlit
N/A
Visualization observer readout
Local Sidereal Time
13:52:24
Azimuth
Unknown
Elevation
Unknown
Doppler factor
Unknown
Orbital elements
Apogee altitude
1,095.434 km
Perigee altitude
762.474 km
Semi-major axis
7,307.091 km
Eccentricity
0.02278
Inclination
98.4323°
RAAN
108.7092°
Arg. of periapsis
268.3593°
True anomaly
91.7568°
Mean anomaly
89.1461°
Eccentric anomaly
90.45145°
Mean motion
3.47477 °/min
Orbital period
103.6 mins
BSTAR
0.00038644
Loading maneuver chart data...
Computing Atmospheric mass density...
Loading historical data...
Loading historical data...
Loading historical data...
Loading historical data...
Loading historical data...
Loading historical data...
Loading historical data...

Documentation

Showing up to 5 results
|